#timestamp,LO_Frequency,Hit,StdDev 
1595991615.6,286047001.4,N
1595991635.4,286047004.3,N
1595991655.3,286047004.1,N
1595991675.1,286047003.6,N
1595991676.0,286047003.6,N
1595991695.8,286047011.9,Y
1595991715.7,286047002.5,P
1595991735.5,286047002.1,P
1595991755.3,286047002.5,P
1595991775.2,286046999.8,N
1595991795.0,286047002.5,N
1595991795.9,286047002.5,N
1595991815.8,286047002.2,N
1595991835.6,286047002.4,N
1595991855.4,286047000.5,N
1595991875.3,286047000.0,N
1595991895.1,286047000.5,N
1595991915.9,286047002.4,N
1595991935.7,286047002.7,N
1595991955.5,286046999.8,N
1595991975.4,286046999.7,N
1595991995.2,286047000.1,N
1595992015.0,286047002.4,N
1595992015.9,286047002.4,N
1595992035.8,286046999.7,N
1595992055.6,286046999.7,N
1595992075.5,286047000.9,N
1595992095.3,286046999.9,N
1595992115.1,286046999.9,N
1595992135.9,286047000.3,N
1595992155.7,286047002.8,N
1595992175.6,286047002.4,N
1595992195.4,286047002.2,N
1595992215.2,286047001.5,N
1595992235.1,286046999.7,N
1595992236.0,286046999.7,N
1595992255.8,286046999.8,N
1595992275.7,286047001.9,N
1595992295.5,286047002.6,N
1595992315.3,286047001.5,N
1595992335.2,286047002.3,N
1595992355.0,286047002.3,N
1595992355.9,286047002.3,N
1595992375.8,286047002.5,N
1595992395.6,286047002.0,N
1595992415.4,286047002.3,N
1595992435.3,286047002.1,N
1595992455.1,286047002.6,N
1595992475.9,286047002.8,N
1595992495.7,286047002.3,N
1595992515.5,286047002.5,N
1595992535.4,286047002.2,N
1595992555.2,286047002.2,N
1595992575.1,286047002.6,N
1595992576.0,286047002.6,N
1595992595.8,286047002.6,N
1595992615.6,286047001.9,N
1595992635.5,286047002.1,N
1595992655.3,286047002.7,N
1595992675.1,286047000.2,N
1595992695.9,286047002.7,N
1595992715.7,286047002.2,N
1595992735.6,286047002.7,Y
1595992755.4,286047000.8,P
1595992775.2,286047001.0,N
1595992795.1,286046998.6,N
1595992796.0,286046998.6,N
1595992815.8,286047000.4,N
1595992835.7,286047001.2,N
1595992855.5,286047000.4,N
1595992875.3,286047000.5,N
1595992895.2,286047000.5,N
1595992915.0,286047000.3,N
1595992915.9,286047000.3,N
1595992935.7,286047000.2,N
1595992955.6,286047002.3,N
1595992975.4,286047002.0,N
1595992995.3,286047001.6,N
1595993015.1,286047002.1,N
1595993016.0,286047002.1,N
1595993035.8,286047002.8,N
1595993055.7,286047002.6,N
1595993075.5,286047002.6,N
1595993095.4,286047001.5,N
1595993115.2,286047001.6,N
1595993135.0,286047004.4,Y
1595993135.9,286047004.4,P
1595993155.8,286047002.8,N
1595993175.6,286047002.7,N
1595993195.4,286047002.4,N
1595993215.3,286046999.7,N
1595993235.1,286046999.9,N
1595993255.9,286046999.8,N
1595993275.7,286047002.2,N
1595993295.5,286047001.8,N
1595993315.4,286047002.2,N
1595993335.2,286047004.4,Y
1595993355.1,286047000.2,P
1595993356.0,286047000.2,N
1595993375.8,286047000.3,N
1595993395.6,286046999.8,N
1595993415.5,286046998.1,N
1595993435.3,286047001.1,N
1595993455.2,286047000.5,N
1595993475.9,286047000.5,N
1595993495.7,286047001.1,N
1595993515.6,286047000.9,N
1595993535.4,286047001.0,N
1595993555.2,286047000.7,N
1595993575.1,286047000.6,N
1595993576.0,286047000.6,N
1595993595.8,286047000.0,N
1595993615.7,286047000.5,N
1595993635.5,286047001.0,N
1595993655.3,286047001.2,N
1595993675.2,286047001.0,N
1595993695.0,286047000.5,N
1595993695.9,286047000.5,N
1595993715.8,286047002.4,Y
1595993735.6,286047000.3,P
1595993755.4,286046998.3,P
1595993775.3,286046998.5,N
1595993795.1,286047001.0,N
1595993815.8,286046998.5,N
1595993835.7,286046998.6,N
1595993855.5,286046998.1,N
1595993875.4,286047001.1,N
1595993895.2,286046998.1,N
1595993915.0,286046998.2,N
1595993915.9,286046998.2,N
1595993935.8,286046999.4,N
1595993955.6,286046998.3,N
1595993975.4,286046998.4,N
1595993995.3,286046999.4,N
1595994015.1,286046998.7,N
1595994035.9,286047001.2,N
1595994055.7,286046999.4,N
1595994075.5,286046996.5,Y
1595994095.4,286046998.7,P
1595994115.2,286046998.3,P
1595994135.1,286046998.6,P
1595994136.0,286046998.6,Y
1595994155.8,286047000.8,P
1595994175.6,286046998.3,N
1595994195.5,286046999.1,N
1595994215.3,286046999.5,N
1595994235.2,286046999.5,N
1595994255.9,286046998.8,N
1595994275.7,286046998.5,N
1595994295.6,286046998.7,N
1595994315.4,286046998.7,N
1595994335.2,286046998.8,N
1595994355.1,286046999.1,N
1595994356.0,286046999.1,N
1595994375.8,286046997.0,Y
1595994395.7,286046999.1,P
1595994415.5,286046999.3,P
1595994435.3,286046999.0,P
1595994455.2,286046999.4,Y
1595994475.0,286047001.0,P
1595994475.9,286047001.0,N
1595994495.8,286046998.2,N
1595994515.6,286046999.5,N
1595994535.4,286046998.9,N
1595994555.3,286046998.8,N
1595994575.1,286046998.8,N
1595994595.8,286046999.0,N
1595994615.7,286046998.5,N
1595994635.5,286046998.5,N
1595994655.4,286046998.3,N
1595994675.2,286046998.9,N
1595994695.0,286046998.7,N
1595994695.9,286046998.7,N
1595994715.8,286046998.6,N
1595994735.6,286046999.0,N
1595994755.5,286046998.2,N
1595994775.3,286047000.5,N
1595994795.1,286047000.2,N
1595994815.9,286047000.2,N
1595994835.7,286046998.7,N
1595994855.5,286047000.7,N
1595994875.4,286047000.9,N
1595994895.2,286047000.5,N
1595994915.1,286046999.9,N
1595994916.0,286046999.9,N
1595994935.8,286047000.1,N
1595994955.6,286046999.7,N
1595994975.5,286047002.6,N
1595994995.3,286047002.8,N
1595995015.1,286047002.7,N
1595995035.9,286047002.5,N
1595995055.7,286047002.8,N
1595995075.6,286047000.0,N
1595995095.4,286047000.5,N
1595995115.2,286047001.1,N
1595995135.1,286047000.9,N
1595995136.0,286047000.9,N
1595995155.8,286047000.9,N
1595995175.7,286047001.0,N
1595995195.5,286046998.1,N
